Bonaire, Netherlands

9:41 PM AST on August 17, 2017 (GMT -0400)
Flamingo

Weather History for TNCB - August, 2012

Change the Weather History Date:

Monday, August 27, 2012

  Actual Average Record
Temperature  
Mean Temperature 80 °F -  
Max Temperature 86 °F 89 °F 93 °F (2005)
Min Temperature 75 °F 82 °F 75 °F (2012)
Cooling Degree Days 16    
Growing Degree Days 30 (Base 50)    
Moisture  
Dew Point 76 °F    
Average Humidity 76    
Maximum Humidity 89    
Minimum Humidity 67    
Precipitation  
Precipitation 0.08 in - - ()
Sea Level Pressure  
Sea Level Pressure 29.96 in    
Wind  
Wind Speed 17 mph ()    
Max Wind Speed 25 mph    
Max Gust Speed -    
Visibility 9.4 miles    
Events Rain , Thunderstorm    
Averages and records for this station are not official NWS values.
T = Trace of Precipitation, MM = Missing Value Source: Averaged Metar Reports

Daily Weather History Graph

Daily Weather History Graph

Search for Another Location

Airport or City:

Trip Planner

Search our weather history database for the weather conditions in past years. The results will help you decide how hot, cold, wet, or windy it might be!

Date:

Astronomy

Aug. 27, 2012 Rise Set
Actual Time 6:22 AM AST 6:46 PM AST
Civil Twilight 6:00 AM AST 7:07 PM AST
Nautical Twilight 5:35 AM AST 7:32 PM AST
Astronomical Twilight 5:10 AM AST 7:58 PM AST
Moon 3:37 PM AST (8/27) 2:32 AM AST (8/27)
Length of Visible Light 13h 06m
Length of Day
12h 23m
Waxing Gibbous, 82% of the Moon is Illuminated
Aug 27
Waxing Gibbous
Aug 31
Full
Sep 8
Last Quarter
Sep 15
New
Sep 22
First Quarter

Hourly Weather History & Observations

Time (AST) Temp. Heat Index Dew Point Humidity Pressure Visibility Wind Dir Wind Speed Gust Speed Precip Events Conditions
12:00 AM 84.2 °F 94.1 °F 77.0 °F 79% 29.95 in - North - - N/A   Unknown
1:00 AM 84.2 °F 92.3 °F 75.2 °F 74% 29.95 in - North - - N/A   Unknown
2:00 AM 83 °F - 77 °F 76%  in - East 18.4 mph - -   Clear
2:00 AM 84.2 °F 94.1 °F 77.0 °F 79% 29.92 in - North - - N/A   Unknown
3:00 AM 82.4 °F 89.5 °F 75.2 °F 79% 29.92 in - North - - N/A   Unknown
4:00 AM 82.4 °F 89.5 °F 75.2 °F 79% 29.92 in - North - - N/A   Unknown
5:00 AM 82.4 °F 90.9 °F 77.0 °F 84% 29.92 in - North - - N/A   Unknown
6:00 AM 82.4 °F 90.9 °F 77.0 °F 84% 29.95 in - North - - N/A   Unknown
7:00 AM 84.2 °F 94.1 °F 77.0 °F 79% 29.95 in 6.2 mi ESE 17.3 mph - N/A   Scattered Clouds
8:00 AM 76 °F - 72 °F 86% 30.01 in 9 mi SSE 23.0 mph - - Rain , Thunderstorm Thunderstorms and Rain
8:00 AM 75.2 °F - 71.6 °F 89% 30.01 in 6.2 mi SSE 23.0 mph - N/A Rain , Thunderstorm Thunderstorms and Rain
9:00 AM 80.6 °F 85.4 °F 73.4 °F 79% 30.01 in 6.2 mi East 13.8 mph - N/A   Scattered Clouds
10:00 AM 82.4 °F 90.9 °F 77.0 °F 84% 30.01 in 6.2 mi East 18.4 mph - N/A   Scattered Clouds
11:00 AM 84 °F - 75 °F 69% 30.03 in 19 mi East 20.7 mph - -   Partly Cloudy
11:00 AM 84.2 °F 92.3 °F 75.2 °F 74% 30.01 in 6.2 mi East 20.7 mph - N/A   Scattered Clouds
12:00 PM 86.0 °F 95.1 °F 75.2 °F 70% 30.01 in 6.2 mi East 21.9 mph - N/A   Scattered Clouds
1:00 PM 86.0 °F 96.9 °F 77.0 °F 74% 29.98 in 6.2 mi ESE 18.4 mph - N/A   Scattered Clouds
2:00 PM 85 °F - 76 °F 67% 29.96 in 19 mi ESE 25.3 mph - - Rain Light Rain Showers
2:00 PM 86.0 °F 95.1 °F 75.2 °F 70% 29.95 in 6.2 mi ESE 25.3 mph - N/A   Scattered Clouds
3:00 PM 86.0 °F 96.9 °F 77.0 °F 74% 29.92 in 6.2 mi East 23.0 mph - N/A   Scattered Clouds
4:00 PM 86.0 °F 95.1 °F 75.2 °F 70% 29.92 in 6.2 mi East 20.7 mph - N/A   Scattered Clouds
5:00 PM 85 °F - 76 °F 68% 29.93 in 19 mi ESE 21.9 mph - -   Partly Cloudy
5:00 PM 84.2 °F 92.3 °F 75.2 °F 74% 29.92 in 6.2 mi East 24.2 mph - N/A   Scattered Clouds
8:00 PM 83 °F - 75 °F 72% 30.00 in 19 mi ESE 16.1 mph - -   Scattered Clouds
8:00 PM 82.4 °F 89.5 °F 75.2 °F 79% 29.98 in 6.2 mi ESE 16.1 mph - N/A   Partly Cloudy